Weather History for Ogallala, NE

Change the Weather History Date:

Tuesday, December 13, 2011

  Actual Average Record
Temperature  
Mean Temperature 27 °F -  
Max Temperature 31 °F 42 °F 70 °F (1988)
Min Temperature 23 °F 15 °F -14 °F (1961)
Degree Days  
Heating Degree Days 38    
Moisture  
Dew Point 26 °F    
Average Humidity 95    
Maximum Humidity 96    
Minimum Humidity 93    
Precipitation  
Precipitation 0.00 in - - ()
Sea Level Pressure  
Sea Level Pressure 30.04 in    
Wind  
Wind Speed 5 mph (ESE)    
Max Wind Speed 7 mph    
Max Gust Speed -    
Visibility 3 miles    
Events Fog    
Averages and records for this station are not official NWS values.
T = Trace of Precipitation, MM = Missing Value Source: NWS Daily Summary

Daily Weather History Graph

Daily Weather History Graph

Search for Another Location

Airport:

Trip Planner

Search our weather history database for the weather conditions in past years. The results will help you decide how hot, cold, wet, or windy it might be!

Date:

Astronomy

Dec. 13, 2011 Rise Set
Actual Time 7:03 AM MST 4:18 PM MST
Civil Twilight 6:32 AM MST 4:49 PM MST
Nautical Twilight 5:57 AM MST 5:24 PM MST
Astronomical Twilight 5:24 AM MST 5:58 PM MST
Moon 7:36 PM MST (12/13) 9:14 AM MST (12/13)
Length of Visible Light 10h 17m
Length of Day
9h 15m
Waning Gibbous, 90% of the Moon is Illuminated
Dec 13
Waning Gibbous
Dec 17
Last Quarter
Dec 24
New
Dec 31
First Quarter
Jan 9
Full

Hourly Weather History & Observations

Time (MST) Temp. Windchill Dew Point Humidity Pressure Visibility Wind Dir Wind Speed Gust Speed Precip Events Conditions
12:15 AM 23.9 °F 15.8 °F 22.6 °F 95% 30.14 in 1.0 mi ESE 6.9 mph - N/A   Overcast
12:35 AM 23.9 °F 16.8 °F 22.5 °F 94% 30.15 in 1.8 mi SE 5.8 mph - N/A   Overcast
12:55 AM 23.9 °F 15.8 °F 22.5 °F 94% 30.14 in 1.8 mi East 6.9 mph - N/A   Overcast
1:15 AM 23.9 °F 15.8 °F 22.6 °F 95% 30.15 in 0.8 mi SE 6.9 mph - N/A   Overcast
1:35 AM 24.3 °F 17.3 °F 22.8 °F 94% 30.14 in 0.8 mi ESE 5.8 mph - N/A   Overcast
1:55 AM 24.3 °F 17.3 °F 22.8 °F 94% 30.14 in 0.8 mi East 5.8 mph - N/A   Overcast
2:15 AM 24.4 °F 20.1 °F 23.0 °F 94% 30.14 in 0.8 mi East 3.5 mph - N/A   Overcast
2:35 AM 24.4 °F 16.5 °F 23.0 °F 94% 30.12 in 1.0 mi East 6.9 mph - N/A   Overcast
2:55 AM 24.3 °F 17.3 °F 22.8 °F 94% 30.12 in 1.0 mi East 5.8 mph - N/A   Overcast
3:35 AM 23.9 °F 16.8 °F 22.3 °F 94% 30.09 in 1.0 mi East 5.8 mph - N/A   Overcast
4:15 AM 23.9 °F 18.0 °F 22.5 °F 94% 30.09 in 1.0 mi East 4.6 mph - N/A   Overcast
4:35 AM 23.7 °F 17.8 °F 22.1 °F 94% 30.09 in 0.8 mi East 4.6 mph - N/A   Overcast
4:55 AM 23.7 °F 17.8 °F 22.1 °F 94% 30.09 in 0.5 mi East 4.6 mph - N/A Fog Light Freezing Fog
5:15 AM 23.7 °F 17.8 °F 22.1 °F 94% 30.09 in 0.5 mi East 4.6 mph - N/A Fog Light Freezing Fog
5:35 AM - - - N/A% 30.08 in 0.5 mi East 4.6 mph - N/A Fog Fog
5:55 AM - - - N/A% 30.08 in 0.8 mi East 4.6 mph - N/A   Overcast
6:15 AM - - - N/A% 30.08 in 0.8 mi East 5.8 mph - N/A   Overcast
6:35 AM - - - N/A% 30.10 in 0.8 mi East 5.8 mph - N/A   Overcast
6:55 AM - - - N/A% 30.09 in 1.0 mi East 4.6 mph - N/A   Overcast
7:15 AM - - - N/A% 30.09 in 1.5 mi East 4.6 mph - N/A   Overcast
7:35 AM - - - N/A% 30.09 in 1.0 mi East 5.8 mph - N/A   Overcast
7:55 AM - - - N/A% 30.08 in 1.0 mi East 5.8 mph - N/A   Overcast
8:15 AM 24.3 °F 18.4 °F 22.8 °F 94% 30.09 in 0.8 mi East 4.6 mph - N/A   Overcast
8:35 AM 24.8 °F 20.5 °F 23.5 °F 95% 30.08 in 0.8 mi East 3.5 mph - N/A   Overcast
8:55 AM 25.3 °F 19.7 °F 23.9 °F 94% 30.08 in 0.8 mi East 4.6 mph - N/A   Overcast
9:15 AM 25.5 °F 19.9 °F 24.1 °F 94% 30.07 in 1.0 mi East 4.6 mph - N/A   Overcast
9:35 AM 26.6 °F - 25.3 °F 95% 30.07 in 1.2 mi Calm Calm - N/A   Overcast
9:55 AM 27.5 °F 23.6 °F 26.2 °F 95% 30.07 in 1.5 mi SE 3.5 mph - N/A   Overcast
10:15 AM 28.0 °F 24.2 °F 26.6 °F 94% 30.06 in 1.8 mi SE 3.5 mph - N/A   Overcast
10:35 AM 28.4 °F 24.6 °F 27.3 °F 96% 30.05 in 2.5 mi SE 3.5 mph - N/A   Overcast
10:55 AM 28.9 °F - 27.5 °F 94% 30.04 in 4.0 mi Calm Calm - N/A   Overcast
11:15 AM 28.9 °F 25.2 °F 27.7 °F 95% 30.02 in 5.0 mi SSE 3.5 mph - N/A   Overcast
11:35 AM 29.3 °F 25.6 °F 28.4 °F 96% 30.01 in 3.0 mi South 3.5 mph - N/A   Overcast
11:55 AM 29.7 °F 23.7 °F 28.6 °F 96% 30.01 in 1.8 mi SSE 5.8 mph - N/A   Overcast
12:15 PM 30.2 °F 25.4 °F 29.1 °F 96% 29.99 in 1.8 mi SSE 4.6 mph - N/A   Overcast
12:35 PM 30.6 °F 25.8 °F 29.3 °F 95% 29.98 in 2.5 mi South 4.6 mph - N/A   Overcast
12:55 PM 30.9 °F 27.5 °F 29.8 °F 96% 29.97 in 3.0 mi SSE 3.5 mph - N/A   Overcast
1:15 PM 31.1 °F 26.4 °F 30.0 °F 96% 29.97 in 3.0 mi South 4.6 mph - N/A   Overcast
1:35 PM 31.1 °F 27.7 °F 30.0 °F 96% 29.97 in 3.0 mi SW 3.5 mph - N/A   Overcast
1:55 PM 31.5 °F 28.1 °F 30.2 °F 95% 29.96 in 3.0 mi SSW 3.5 mph - N/A   Overcast
2:15 PM 31.5 °F - 30.2 °F 95% 29.94 in 3.0 mi Calm Calm - N/A   Overcast
2:35 PM 31.5 °F - 30.2 °F 95% 29.92 in 2.5 mi Calm Calm - N/A   Overcast
2:55 PM 31.6 °F - 30.4 °F 95% 29.93 in 3.0 mi Calm Calm - N/A   Overcast
3:15 PM 31.6 °F 28.3 °F 30.4 °F 95% 29.94 in 5.0 mi SSW 3.5 mph - N/A   Overcast
3:35 PM 31.6 °F 27.0 °F 30.6 °F 96% 29.95 in 7.0 mi SW 4.6 mph - N/A   Overcast
3:55 PM 31.6 °F - 30.2 °F 94% 29.92 in 10.0 mi Calm Calm - N/A   Overcast
4:15 PM 31.6 °F - 30.2 °F 94% 29.93 in 10.0 mi Calm Calm - N/A   Overcast
4:35 PM 31.5 °F - 29.8 °F 94% 29.93 in 10.0 mi Calm Calm - N/A   Overcast
4:55 PM 31.5 °F - 29.8 °F 94% 29.93 in 10.0 mi Calm Calm - N/A   Overcast
5:15 PM 31.5 °F - 29.7 °F 93% 29.94 in 10.0 mi Calm Calm - N/A   Overcast
5:35 PM 31.1 °F - 29.3 °F 93% 29.92 in 10.0 mi Calm Calm - N/A   Overcast
5:55 PM 31.1 °F - 29.3 °F 93% 29.94 in 10.0 mi Calm Calm - N/A   Overcast
6:15 PM 31.1 °F - 29.3 °F 93% 29.91 in 10.0 mi Calm Calm - N/A   Overcast
6:35 PM 31.1 °F - 29.1 °F 92% 29.91 in 10.0 mi Calm Calm - N/A   Overcast
6:55 PM 31.1 °F - 29.1 °F 92% 29.92 in 7.0 mi Calm Calm - N/A   Overcast
7:15 PM 31.1 °F 27.7 °F 29.3 °F 93% 29.92 in 7.0 mi WSW 3.5 mph - N/A   Overcast
7:35 PM 30.9 °F - 29.1 °F 93% 29.90 in 7.0 mi Calm Calm - N/A   Overcast
7:55 PM 31.1 °F - 29.3 °F 93% 29.91 in 7.0 mi Calm Calm - N/A   Overcast
8:15 PM 30.9 °F - 29.1 °F 93% 29.88 in 7.0 mi Calm Calm - N/A   Overcast
8:35 PM 30.9 °F - 29.1 °F 93% 29.89 in 7.0 mi Calm Calm - N/A   Overcast
8:55 PM 30.9 °F - 29.1 °F 93% 29.87 in 5.0 mi Calm Calm - N/A   Overcast
9:15 PM 30.9 °F - 29.3 °F 94% 29.87 in 5.0 mi Calm Calm - N/A   Overcast
9:35 PM 31.1 °F 26.4 °F 29.3 °F 93% 29.87 in 5.0 mi West 4.6 mph - N/A   Overcast
9:55 PM 31.1 °F 27.7 °F 29.3 °F 93% 29.89 in 5.0 mi WSW 3.5 mph - N/A   Overcast
10:15 PM 31.1 °F - 29.3 °F 93% 29.86 in 5.0 mi Calm Calm - N/A   Overcast
10:35 PM 31.1 °F - 29.3 °F 93% 29.88 in 4.0 mi Calm Calm - N/A   Overcast
10:55 PM 31.1 °F - 29.3 °F 93% 29.89 in 4.0 mi Calm Calm - N/A   Overcast
11:15 PM 31.1 °F - 29.3 °F 93% 29.86 in 4.0 mi Calm Calm - N/A   Overcast
11:35 PM 31.1 °F - 29.3 °F 93% 29.85 in 4.0 mi Calm Calm - N/A   Overcast
11:55 PM 30.9 °F - 29.3 °F 94% 29.84 in 4.0 mi Calm Calm - N/A   Overcast